When you browse on this site, cookies collect data to enhance your experience and personalize the content and advertising you see.
Visit our Privacy Policy to learn more. By continuing to use the site, you agree to this use of cookies and data.
  • en France
  • Liste des pays
  • À 7 jours
  • Température de l'eau
  • Carte météo
  • Widgets météo
  • user-avatar
    Se connecter

    Météo par heure à Chichester

    Ce jour, 9 Décembre, Lundi

    Heure Température Précipitation Vent Pression Humidité
    00:00 +7°C° 0 mm 13 m/s 744 mmHg 78%
    01:00 +5°C° 0.1 mm 13 m/s 743 mmHg 80%
    02:00 +5°C° 0.1 mm 13 m/s 743 mmHg 81%
    03:00 +4°C° 0.1 mm 12 m/s 743 mmHg 82%
    04:00 +5°C° 0.1 mm 13 m/s 744 mmHg 80%
    05:00 +5°C° 0.1 mm 13 m/s 746 mmHg 78%
    06:00 +6°C° 0 mm 11 m/s 747 mmHg 78%
    07:00 +6°C° 0 mm 11 m/s 749 mmHg 78%
    08:00 +6°C° 0 mm 11 m/s 751 mmHg 77%
    09:00 +4°C° 0 mm 11 m/s 753 mmHg 77%
    10:00 +6°C° 0 mm 11 m/s 755 mmHg 74%
    11:00 +6°C° 0 mm 11 m/s 757 mmHg 71%
    12:00 +7°C° 0 mm 10 m/s 759 mmHg 69%
    13:00 +6°C° 0 mm 9 m/s 760 mmHg 70%
    14:00 +6°C° 0 mm 8 m/s 761 mmHg 70%
    15:00 +6°C° 0 mm 7 m/s 761 mmHg 70%
    16:00 +5°C° 0 mm 7 m/s 763 mmHg 73%
    17:00 +4°C° 0 mm 6 m/s 764 mmHg 76%
    18:00 +3°C° 0 mm 5 m/s 765 mmHg 79%
    19:00 +4°C° 0 mm 4 m/s 766 mmHg 80%
    20:00 +3°C° 0 mm 3 m/s 766 mmHg 81%
    21:00 +3°C° 0 mm 3 m/s 767 mmHg 83%
    22:00 +4°C° 0 mm 2 m/s 767 mmHg 83%
    23:00 +4°C° 0 mm 2 m/s 767 mmHg 84%

    Demain, 10 Décembre, Mardi

    Heure Température Précipitation Vent Pression Humidité
    00:00 +4°C° 0 mm 2 m/s 767 mmHg 85%
    01:00 +4°C° 0 mm 2 m/s 767 mmHg 84%
    02:00 +3°C° 0 mm 3 m/s 766 mmHg 84%
    03:00 +3°C° 0 mm 4 m/s 766 mmHg 84%
    04:00 +3°C° 0 mm 5 m/s 766 mmHg 83%
    05:00 +4°C° 0 mm 7 m/s 765 mmHg 82%
    06:00 +5°C° 0 mm 8 m/s 764 mmHg 81%
    07:00 +6°C° 0 mm 9 m/s 764 mmHg 82%
    08:00 +6°C° 0 mm 10 m/s 763 mmHg 83%
    09:00 +7°C° 0 mm 11 m/s 762 mmHg 83%
    10:00 +7°C° 0.4 mm 12 m/s 761 mmHg 85%
    11:00 +7°C° 0.4 mm 13 m/s 760 mmHg 87%
    12:00 +7°C° 0.4 mm 13 m/s 759 mmHg 89%
    13:00 +6°C° 0.8 mm 14 m/s 757 mmHg 89%
    14:00 +8°C° 0.8 mm 14 m/s 756 mmHg 89%
    15:00 +9°C° 0.8 mm 14 m/s 754 mmHg 89%
    16:00 +9°C° 0.2 mm 15 m/s 753 mmHg 89%
    17:00 +9°C° 0.2 mm 15 m/s 753 mmHg 88%
    18:00 +10°C° 0.2 mm 15 m/s 752 mmHg 88%
    19:00 +8°C° 1.2 mm 14 m/s 752 mmHg 87%
    20:00 +7°C° 1.2 mm 12 m/s 752 mmHg 87%
    21:00 +6°C° 1.2 mm 10 m/s 752 mmHg 86%
    22:00 +6°C° 0.3 mm 9 m/s 753 mmHg 84%
    23:00 +5°C° 0.3 mm 7 m/s 754 mmHg 83%

    Après-demain, 11 Décembre, Mercredi

    Heure Température Précipitation Vent Pression Humidité
    00:00 +5°C° 0.3 mm 6 m/s 754 mmHg 81%
    01:00 +5°C° 0 mm 6 m/s 754 mmHg 82%
    02:00 +4°C° 0 mm 6 m/s 754 mmHg 82%
    03:00 +3°C° 0 mm 5 m/s 754 mmHg 83%
    04:00 +3°C° 0 mm 5 m/s 754 mmHg 83%
    05:00 +4°C° 0 mm 4 m/s 754 mmHg 84%
    06:00 +4°C° 0 mm 4 m/s 754 mmHg 85%
    07:00 +3°C° 0.2 mm 5 m/s 754 mmHg 84%
    08:00 +3°C° 0.2 mm 5 m/s 753 mmHg 84%
    09:00 +4°C° 0.2 mm 6 m/s 753 mmHg 83%
    10:00 +5°C° 0.2 mm 6 m/s 752 mmHg 79%
    11:00 +5°C° 0.2 mm 7 m/s 752 mmHg 76%
    12:00 +6°C° 0.2 mm 7 m/s 751 mmHg 72%
    13:00 +6°C° 0.5 mm 8 m/s 751 mmHg 75%
    14:00 +5°C° 0.5 mm 8 m/s 750 mmHg 77%
    15:00 +5°C° 0.5 mm 9 m/s 750 mmHg 79%
    16:00 +4°C° 0 mm 8 m/s 750 mmHg 81%
    17:00 +3°C° 0 mm 7 m/s 750 mmHg 83%
    18:00 +2°C° 0 mm 7 m/s 750 mmHg 85%
    19:00 +2°C° 0 mm 6 m/s 751 mmHg 85%
    20:00 +2°C° 0 mm 6 m/s 752 mmHg 85%
    21:00 +1°C° 0 mm 6 m/s 752 mmHg 85%
    22:00 +1°C° 0 mm 5 m/s 752 mmHg 84%
    23:00 +1°C° 0 mm 5 m/s 753 mmHg 84%

    12 Décembre, Jeudi

    Heure Température Précipitation Vent Pression Humidité
    00:00 +1°C° 0 mm 5 m/s 753 mmHg 84%
    01:00 +1°C° 0 mm 5 m/s 753 mmHg 84%
    02:00 +1°C° 0 mm 5 m/s 752 mmHg 85%
    03:00 +1°C° 0 mm 5 m/s 752 mmHg 85%
    04:00 +1°C° 0 mm 5 m/s 752 mmHg 83%
    05:00 +1°C° 0 mm 5 m/s 752 mmHg 81%
    06:00 +1°C° 0 mm 5 m/s 751 mmHg 79%
    07:00 +2°C° 0 mm 6 m/s 750 mmHg 80%
    08:00 +4°C° 0 mm 7 m/s 749 mmHg 81%
    09:00 +5°C° 0 mm 8 m/s 748 mmHg 83%
    10:00 +5°C° 1.5 mm 10 m/s 746 mmHg 86%
    11:00 +5°C° 1.5 mm 12 m/s 743 mmHg 89%
    12:00 +6°C° 1.5 mm 14 m/s 741 mmHg 92%
    13:00 +6°C° 4.3 mm 15 m/s 739 mmHg 92%
    14:00 +8°C° 4.3 mm 15 m/s 736 mmHg 91%
    15:00 +9°C° 4.3 mm 16 m/s 734 mmHg 91%
    16:00 +8°C° 0.7 mm 15 m/s 733 mmHg 87%
    17:00 +8°C° 0.7 mm 14 m/s 732 mmHg 83%
    18:00 +8°C° 0.7 mm 13 m/s 731 mmHg 80%
    19:00 +5°C° 0.1 mm 13 m/s 731 mmHg 79%
    20:00 +4°C° 0.1 mm 13 m/s 731 mmHg 78%
    21:00 +3°C° 0.1 mm 12 m/s 731 mmHg 78%
    22:00 +3°C° 0.3 mm 12 m/s 730 mmHg 77%
    23:00 +2°C° 0.3 mm 12 m/s 730 mmHg 75%

    13 Décembre, Vendredi

    Heure Température Précipitation Vent Pression Humidité
    00:00 +2°C° 0.3 mm 12 m/s 730 mmHg 74%
    01:00 +1°C° 0 mm 13 m/s 729 mmHg 74%
    02:00 +1°C° 0 mm 13 m/s 729 mmHg 74%
    03:00 +1°C° 0 mm 13 m/s 728 mmHg 74%
    04:00 +1°C° 0.4 mm 15 m/s 728 mmHg 77%
    05:00 +2°C° 0.4 mm 16 m/s 727 mmHg 81%
    06:00 +3°C° 0.4 mm 18 m/s 727 mmHg 84%
    07:00 +3°C° 0.2 mm 17 m/s 728 mmHg 82%
    08:00 +4°C° 0.2 mm 16 m/s 729 mmHg 80%
    09:00 +4°C° 0.2 mm 15 m/s 730 mmHg 78%
    10:00 +4°C° 0 mm 15 m/s 731 mmHg 77%
    11:00 +4°C° 0 mm 15 m/s 732 mmHg 75%
    12:00 +5°C° 0 mm 15 m/s 733 mmHg 74%
    13:00 +4°C° 0.1 mm 15 m/s 733 mmHg 74%
    14:00 +4°C° 0.1 mm 14 m/s 734 mmHg 74%
    15:00 +4°C° 0.1 mm 14 m/s 735 mmHg 74%
    16:00 +3°C° 0 mm 14 m/s 735 mmHg 74%
    17:00 +3°C° 0 mm 14 m/s 736 mmHg 74%
    18:00 +3°C° 0 mm 13 m/s 736 mmHg 74%
    19:00 +1°C° 0 mm 13 m/s 736 mmHg 74%
    20:00 +2°C° 0 mm 12 m/s 736 mmHg 74%
    21:00 +2°C° 0 mm 12 m/s 737 mmHg 75%
    22:00 +2°C° 0 mm 11 m/s 737 mmHg 76%
    23:00 +2°C° 0 mm 11 m/s 737 mmHg 78%

    14 Décembre, Samedi

    Heure Température Précipitation Vent Pression Humidité
    00:00 +2°C° 0 mm 10 m/s 737 mmHg 79%
    01:00 +2°C° 0 mm 10 m/s 738 mmHg 79%
    02:00 +2°C° 0 mm 10 m/s 738 mmHg 79%
    03:00 +2°C° 0 mm 11 m/s 738 mmHg 80%
    04:00 +2°C° 0 mm 10 m/s 738 mmHg 79%
    05:00 +2°C° 0 mm 10 m/s 738 mmHg 78%
    06:00 +2°C° 0 mm 9 m/s 739 mmHg 77%
    07:00 +2°C° 0 mm 9 m/s 739 mmHg 80%
    08:00 +2°C° 0 mm 8 m/s 739 mmHg 83%
    09:00 +2°C° 0 mm 8 m/s 740 mmHg 86%
    10:00 +3°C° 0.2 mm 10 m/s 740 mmHg 84%
    11:00 +3°C° 0.2 mm 11 m/s 741 mmHg 81%
    12:00 +3°C° 0.2 mm 13 m/s 741 mmHg 79%
    13:00 +3°C° 0 mm 12 m/s 742 mmHg 75%
    14:00 +3°C° 0 mm 11 m/s 743 mmHg 71%
    15:00 +3°C° 0 mm 10 m/s 743 mmHg 67%
    16:00 +3°C° 0 mm 9 m/s 743 mmHg 68%
    17:00 +2°C° 0 mm 8 m/s 744 mmHg 68%
    18:00 +3°C° 0 mm 6 m/s 744 mmHg 69%
    19:00 +2°C° 0.7 mm 8 m/s 743 mmHg 75%
    20:00 +3°C° 0.7 mm 10 m/s 742 mmHg 82%
    21:00 +4°C° 0.7 mm 12 m/s 741 mmHg 89%
    22:00 +4°C° 1.3 mm 12 m/s 741 mmHg 86%
    23:00 +4°C° 1.3 mm 12 m/s 741 mmHg 84%
    Voir plus